FW1302 Weather Reports


time (UTC)temp
C
wind
direction
speed
KPH
gust
KPH
rain 1hr
cm
rain 24hr
cm
rain mn
cm
humidity
%
barometer
mb
20260507140119 11 225 22.5 32.2 0.00 0.00 0.00 77 1030.8
20260507135219 11 224 22.5 29.0 0.00 0.00 0.00 77 1030.8
20260507134219 11 221 17.7 25.7 0.00 0.00 0.00 77 1030.6
20260507133221 11 222 17.7 22.5 0.00 0.00 0.00 78 1030.7
20260507132320 11 225 19.3 29.0 0.00 0.00 0.00 78 1030.6
20260507131419 11 226 19.3 29.0 0.00 0.00 0.00 78 1030.6
20260507125421 11 228 20.9 27.4 0.00 0.00 0.00 79 1030.6
20260507123421 11 225 19.3 27.4 0.00 0.00 0.00 79 1030.5
20260507122519 11 228 19.3 27.4 0.00 0.00 0.00 79 1030.5
20260507121520 11 224 19.3 22.5 0.00 0.00 0.00 79 1030.5
20260507120523 11 228 24.1 29.0 0.00 0.00 0.00 79 1030.5
20260507115521 11 225 19.3 25.7 0.00 0.00 0.00 79 1030.6
20260507114619 11 226 19.3 24.1 0.00 0.00 0.00 79 1030.5
20260507113620 11 206 24.1 30.6 0.00 0.00 0.00 80 1030.4
20260507111719 12 215 19.3 22.5 0.00 0.00 0.00 78 1030.4
20260507110722 12 219 19.3 32.2 0.00 0.00 0.00 79 1030.5
20260507105728 12 211 24.1 33.8 0.00 0.00 0.00 79 1030.6
20260507104821 12 215 19.3 24.1 0.00 0.00 0.00 79 1030.6
20260507104721 12 219 17.7 25.7 0.00 0.00 0.00 79 1030.6
20260507103819 12 222 17.7 24.1 0.00 0.00 0.00 79 1030.6
20260507100819 12 222 22.5 29.0 0.00 0.00 0.00 79 1030.6
20260507095822 12 224 24.1 32.2 0.00 0.00 0.00 79 1030.5
20260507093820 12 222 27.4 37.0 0.00 0.00 0.00 78 1030.6
20260507092822 12 215 22.5 32.2 0.00 0.00 0.00 78 1030.6
20260507091821 12 226 22.5 33.8 0.00 0.00 0.00 78 1030.8
20260507090919 12 228 19.3 25.7 0.00 0.00 0.00 76 1030.6
20260507085922 12 226 29.0 43.5 0.00 0.00 0.00 77 1030.6
20260507084921 12 230 24.1 38.6 0.00 0.00 0.00 77 1030.6
20260507083921 12 232 24.1 32.2 0.00 0.00 0.00 77 1030.6
20260507082920 12 226 29.0 41.8 0.00 0.00 0.00 77 1030.3
20260507081921 12 229 27.4 40.2 0.00 0.00 0.00 76 1030.6
20260507080918 12 224 30.6 43.5 0.00 0.00 0.00 75 1030.7
20260507075019 13 224 29.0 35.4 0.00 0.00 0.00 76 1030.7
20260507074020 13 226 22.5 30.6 0.00 0.00 0.00 76 1030.6
20260507073118 13 226 22.5 30.6 0.00 0.00 0.00 75 1030.8
20260507072119 13 224 22.5 29.0 0.00 0.00 0.00 76 1030.8
20260507070121 13 226 30.6 40.2 0.00 0.00 0.00 75 1030.8
20260507065216 13 228 25.7 35.4 0.00 0.00 0.00 74 1030.7
20260507064215 13 223 25.7 33.8 0.00 0.00 0.00 75 1030.8
20260507063314 13 227 19.3 27.4 0.00 0.00 0.00 74 1030.8
20260507062316 13 222 27.4 33.8 0.00 0.00 0.00 75 1030.7
20260507061317 14 225 25.7 38.6 0.00 0.00 0.00 75 1030.7
20260507055317 14 224 22.5 30.6 0.00 0.00 0.00 76 1030.6
20260507054315 14 234 22.5 29.0 0.00 0.00 0.00 75 1030.6
20260507051316 15 225 19.3 27.4 0.00 0.00 0.00 75 1030.8
20260507050415 15 226 24.1 29.0 0.00 0.00 0.00 75 1030.7
20260507044418 15 225 27.4 38.6 0.00 0.00 0.00 74 1030.6
20260507043415 15 225 29.0 38.6 0.00 0.00 0.00 73 1030.4
20260507042417 16 224 20.9 27.4 0.00 0.00 0.00 72 1030.4
20260507041515 16 227 22.5 30.6 0.00 0.00 0.00 72 1030.3
20260507040516 16 225 22.5 29.0 0.00 0.00 0.00 72 1030.2
20260507035516 16 227 22.5 29.0 0.00 0.00 0.00 72 1030.0
20260507034614 16 237 22.5 32.2 0.00 0.00 0.00 71 1029.9
20260507033617 17 227 22.5 38.6 0.00 0.00 0.00 70 1029.9
20260507032615 17 226 17.7 22.5 0.00 0.00 0.00 70 1029.7
20260507031616 17 227 16.1 20.9 0.00 0.00 0.00 71 1029.6
20260507030714 17 225 17.7 24.1 0.00 0.00 0.00 70 1029.7
20260507025717 17 229 16.1 19.3 0.00 0.00 0.00 69 1029.7
20260507023715 18 220 14.5 19.3 0.00 0.00 0.00 68 1029.7
20260507022716 18 225 17.7 20.9 0.00 0.00 0.00 67 1029.7
20260507021717 18 225 16.1 19.3 0.00 0.00 0.00 66 1029.8
20260507020715 18 224 14.5 19.3 0.00 0.00 0.00 64 1029.9
20260507015715 18 225 17.7 25.7 0.00 0.00 0.00 64 1029.9
20260507014716 18 226 16.1 20.9 0.00 0.00 0.00 64 1029.9
20260507013715 18 225 20.9 25.7 0.00 0.00 0.00 63 1029.9
20260507011716 18 224 20.9 27.4 0.00 0.00 0.00 62 1029.7
20260507010718 18 227 19.3 25.7 0.00 0.00 0.00 62 1029.9
20260507005716 18 226 22.5 30.6 0.00 0.00 0.00 61 1029.7
20260507003716 18 222 24.1 33.8 0.00 0.00 0.00 60 1029.7
20260507002815 19 225 27.4 40.2 0.00 0.00 0.00 59 1029.5
20260507001816 19 221 24.1 37.0 0.00 0.00 0.00 58 1029.4
20260507000817 18 226 25.7 33.8 0.00 0.00 0.00 59 1029.6
20260507000718 18 220 30.6 37.0 0.00 0.00 0.00 59 1029.5
20260506235716 18 223 27.4 37.0 0.00 0.00 0.00 59 1029.4
20260506234717 18 229 25.7 33.8 0.00 0.00 0.00 59 1029.6
20260506233717 18 226 24.1 30.6 0.00 0.00 0.00 61 1029.5
20260506232716 18 227 22.5 30.6 0.00 0.00 0.00 61 1029.6
20260506231815 18 224 27.4 45.1 0.00 0.00 0.00 62 1029.6
20260506230815 18 227 24.1 30.6 0.00 0.00 0.00 62 1029.8
20260506225817 18 224 24.1 29.0 0.00 0.00 0.00 62 1029.7
20260506224915 18 223 25.7 35.4 0.00 0.00 0.00 62 1029.6
20260506223917 18 227 22.5 29.0 0.00 0.00 0.00 61 1029.8
20260506222917 18 225 29.0 41.8 0.00 0.00 0.00 63 1029.8
20260506221917 18 218 24.1 33.8 0.00 0.00 0.00 64 1029.7
20260506220916 18 226 22.5 33.8 0.00 0.00 0.00 63 1030.0
20260506215917 18 225 22.5 29.0 0.00 0.00 0.00 64 1029.9
20260506214916 18 230 24.1 30.6 0.00 0.00 0.00 64 1030.0
20260506213916 18 221 22.5 32.2 0.00 0.00 0.00 62 1030.1
20260506213015 18 218 20.9 35.4 0.00 0.00 0.00 63 1030.1
20260506212016 18 219 24.1 35.4 0.00 0.00 0.00 64 1030.3
20260506210115 18 226 17.7 24.1 0.00 0.00 0.00 67 1030.2
20260506205214 18 213 19.3 29.0 0.00 0.00 0.00 67 1030.1
20260506203215 18 218 22.5 29.0 0.00 0.00 0.00 67 1030.3
20260506202215 17 220 22.5 29.0 0.00 0.00 0.00 68 1030.3
20260506200215 17 212 19.3 27.4 0.00 0.00 0.00 69 1030.8
20260506194316 17 222 22.5 30.6 0.00 0.00 0.00 69 1030.8
20260506193316 17 224 16.1 22.5 0.00 0.00 0.00 71 1030.8
20260506192414 17 224 22.5 30.6 0.00 0.00 0.00 71 1030.6
20260506191416 17 227 20.9 29.0 0.00 0.00 0.00 72 1030.8
20260506190514 17 225 17.7 20.9 0.00 0.00 0.00 72 1030.8
20260506184516 17 229 22.5 29.0 0.00 0.00 0.00 73 1030.8
20260506183615 16 235 19.3 29.0 0.00 0.00 0.00 73 1030.7
20260506183517 16 225 24.1 35.4 0.00 0.00 0.00 74 1030.8
20260506181516 16 213 20.9 25.7 0.00 0.00 0.00 74 1030.9
20260506180515 16 227 17.7 27.4 0.00 0.00 0.00 75 1030.7
20260506175515 16 229 20.9 30.6 0.00 0.00 0.00 75 1030.5
20260506174614 16 232 19.3 27.4 0.00 0.00 0.00 76 1030.6
20260506173616 16 224 19.3 25.7 0.00 0.00 0.00 77 1030.8
20260506172616 15 224 17.7 27.4 0.00 0.00 0.00 78 1030.8
20260506171616 15 231 19.3 29.0 0.00 0.00 0.00 79 1030.7
20260506170616 15 218 14.5 19.3 0.00 0.00 0.00 79 1030.6
20260506165616 15 229 17.7 24.1 0.00 0.00 0.00 79 1030.5
20260506165517 15 226 20.9 27.4 0.00 0.00 0.00 78 1030.4
20260506164516 15 226 17.7 25.7 0.00 0.00 0.00 80 1030.2
20260506163614 15 205 16.1 22.5 0.00 0.00 0.00 80 1030.4
20260506162617 15 223 14.5 19.3 0.00 0.00 0.00 80 1030.3
20260506161615 15 234 16.1 20.9 0.00 0.00 0.00 81 1030.1
20260506155716 14 226 16.1 24.1 0.00 0.00 0.00 80 1030.6
20260506154714 14 224 20.9 30.6 0.00 0.00 0.00 81 1030.8
20260506153715 14 225 19.3 25.7 0.00 0.00 0.00 81 1030.8
20260506152814 14 226 22.5 32.2 0.00 0.00 0.00 81 1030.8
20260506151816 14 235 17.7 24.1 0.00 0.00 0.00 81 1030.7
20260506145914 14 222 17.7 29.0 0.00 0.00 0.00 80 1030.3
20260506144915 14 225 17.7 27.4 0.00 0.00 0.00 82 1030.0
20260506143914 14 222 16.1 24.1 0.00 0.00 0.00 82 1030.0
20260506142917 14 223 9.7 14.5 0.00 0.00 0.00 82 1029.9
20260506141915 14 222 11.3 17.7 0.00 0.00 0.00 82 1029.9
20260506140916 14 210 14.5 22.5 0.00 0.00 0.00 83 1029.8